Location: Dziadowski
(50.3833°N, 20.0333°E)
Time: 00:19:33
(UTC+00:00)

Cosmos 2297 - Pass Details

Date: 18 January 2026
Orbit: 835 x 857 km, 71.0° (Epoch: 16 February)

Event Time Altitude Azimuth Distance (km) Brightness Sun altitude
Rises 05:31:28 0° 195° (SSW) 3,374 6.9 -9.4°
Reaches altitude 10° 05:33:55 10° 191° (SSW) 2,443 6.2 -9.0°
Maximum altitude 05:39:25 60° 113° (ESE) 954 4.4 -8.2°
Drops below altitude 10° 05:44:56 10° 35° (NE) 2,458 6.3 -7.4°
Sets 05:47:25 0° 32° (NNE) 3,398 7.0 -7.0°
